Regional Weather Roundup
Issued by NWS

Home | Current Version | Previous Version | Text Only | Print | Product List | Glossary On
Versions: 1 2 3 4 5 6 7 8 9 10 11 12 13 14 15 16 17 18 19 20 21 22 23 24 25 26 27 28 29 30 31 32 33 34
000
ASUS44 KBMX 291710
RWRAL

ALABAMA REGIONAL WEATHER ROUNDUP
NATIONAL WEATHER SERVICE BIRMINGHAM AL
1200 PM CDT WED MAR 29 2017

NOTE: "FAIR" INDICATES FEW OR NO CLOUDS BELOW 12,000 FEET
WITH NO SIGNIFICANT WEATHER AND/OR OBSTRUCTIONS TO VISIBILITY.

THE REMARK "TC" DENOTES TEMPERATURE IN DEGREES CELSIUS.

ALZ001>011-014-016>018-020-291800-
NORTH ALABAMA

CITY           SKY/WX    TMP DP  RH WIND       PRES   REMARKS
MUSCLE SHOALS  SUNNY     75  60  59 CALM      30.04F
HUNTSVILLE     MOSUNNY   76  61  59 VRB3      30.05R
DECATUR        SUNNY     74  61  63 VRB3      30.05R
HALEYVILLE     PTSUNNY   77  64  64 S7        30.06F
GADSDEN        SUNNY     77  61  57 CALM      30.05S
$$

ALZ012-013-022-023-030>036-040>044-291800-
WEST CENTRAL ALABAMA

CITY           SKY/WX    TMP DP  RH WIND       PRES   REMARKS
TUSCALOOSA     PTSUNNY   73  63  70 W3        30.06S
$$

ALZ015-024>027-033>036-040>044-291800-
CENTRAL ALABAMA

CITY           SKY/WX    TMP DP  RH WIND       PRES   REMARKS
BIRMINGHAM     SUNNY     79  62  56 W7        30.07R
MONTGOMERY     SUNNY     79  60  52 NE5       30.04S
SHELBY CO ARPT SUNNY     75  65  70 VRB3      30.05S
MAXWELL AFB    SUNNY     76  64  66 NE3       30.03S
GREENVILLE     FAIR      79  60  52 VRB6      30.03R
$$

ALZ019-021-028-029-037-038-045>048-291800-
EAST CENTRAL ALABAMA

CITY           SKY/WX    TMP DP  RH WIND       PRES   REMARKS
ANNISTON       SUNNY     79  61  53 VRB5      30.03F
ALEXANDER CITY SUNNY     77  65  65 E7        30.04S
AUBURN         SUNNY     77  65  66 VRB3      30.05F
$$

ALZ051>064-291800-
SOUTHWEST ALABAMA

CITY           SKY/WX    TMP DP  RH WIND       PRES   REMARKS
MOBILE         PTSUNNY   79  62  56 S12       30.06R
BROOKLEY FIELD PTSUNNY   78  68  71 SE13      30.07R
EVERGREEN      MOSUNNY   80  60  50 S7        30.04S
$$

ALZ049-050-065>069-291800-
SOUTHEAST ALABAMA

CITY           SKY/WX    TMP DP  RH WIND       PRES   REMARKS
DOTHAN         MOSUNNY   79  60  52 VRB3      30.07F
OZARK          MOSUNNY   78  62  57 SW7       30.04S
TROY           SUNNY     80  61  52 SE8       30.03F
EUFAULA        NOT AVBL
$$




USA.gov is the U.S. government's official web portal to all federal, state and local government web resources and services.